UAL58 KSFO-EDDF

Flight info

Callsign UAL58
Flight time N/A
Altitude 35000
Route SNTNA2 DEDHD DCT ILA DCT BKE/N0474F370 DCT STIGS J540 YQL Q896 MEETO DCT 58N100W 63N090W/N0489F390 66N080W 6730N07000W/M084F390 DCT CANEL DCT 68N060W 68N050W 6730N04000W 66N030W 64N020W/M084F410 DCT RATSU/N0490F410 DCT BARKU DCT GODOS DCT AMGOD DCT PETIK DCT SOGPO DCT DIXAT DIXAT1A
Aircraft B772/H-SDE2E3FGHIJ5LORVWXY/LB1D1

Departure

Time 2026-05-04 03:15
Airport San Francisco International Airport (KSFO)

Arrival

Time N/A
Airport Frankfurt Main Airport (EDDF)
Time Latitude Longitude Altitude Speed Heading
2026-05-04 02:35 37.62108 -122.38846 26 ft 0 kts 207°
2026-05-04 03:03 37.62126 -122.38834 27 ft 4 kts 207°
2026-05-04 03:03 37.62150 -122.38818 24 ft 4 kts 207°
2026-05-04 03:03 37.62171 -122.38804 25 ft 2 kts 208°
2026-05-04 03:03 37.62194 -122.38794 25 ft 4 kts 173°
2026-05-04 03:04 37.62216 -122.38807 26 ft 4 kts 130°
2026-05-04 03:04 37.62230 -122.38833 25 ft 4 kts 117°
2026-05-04 03:04 37.62243 -122.38863 25 ft 4 kts 117°
2026-05-04 03:04 37.62255 -122.38894 24 ft 4 kts 117°
2026-05-04 03:05 37.62261 -122.38909 25 ft 0 kts 117°
2026-05-04 03:07 37.62248 -122.38860 25 ft 9 kts 92°
2026-05-04 03:07 37.62270 -122.38784 26 ft 10 kts 83°
2026-05-04 03:07 37.62234 -122.38668 26 ft 16 kts 119°
2026-05-04 03:08 37.62180 -122.38540 26 ft 16 kts 117°
2026-05-04 03:08 37.62157 -122.38485 26 ft 4 kts 117°
2026-05-04 03:08 37.62140 -122.38444 25 ft 11 kts 117°
2026-05-04 03:08 37.62097 -122.38341 25 ft 13 kts 118°
2026-05-04 03:09 37.62054 -122.38237 26 ft 13 kts 118°
2026-05-04 03:09 37.62010 -122.38133 26 ft 13 kts 118°
2026-05-04 03:09 37.61966 -122.38029 25 ft 13 kts 118°
2026-05-04 03:09 37.61906 -122.37940 26 ft 13 kts 141°
2026-05-04 03:10 37.61833 -122.37868 26 ft 13 kts 126°
2026-05-04 03:10 37.61795 -122.37760 26 ft 13 kts 111°
2026-05-04 03:10 37.61758 -122.37639 26 ft 17 kts 111°
2026-05-04 03:10 37.61714 -122.37501 26 ft 17 kts 115°
2026-05-04 03:11 37.61660 -122.37372 26 ft 17 kts 118°
2026-05-04 03:11 37.61605 -122.37241 26 ft 17 kts 118°
2026-05-04 03:11 37.61550 -122.37109 25 ft 17 kts 118°
2026-05-04 03:11 37.61495 -122.36978 26 ft 17 kts 118°
2026-05-04 03:12 37.61422 -122.36862 26 ft 17 kts 134°
2026-05-04 03:12 37.61349 -122.36745 26 ft 17 kts 118°
2026-05-04 03:12 37.61295 -122.36614 26 ft 17 kts 117°
2026-05-04 03:12 37.61240 -122.36482 26 ft 17 kts 118°
2026-05-04 03:13 37.61185 -122.36351 26 ft 17 kts 118°
2026-05-04 03:13 37.61129 -122.36220 26 ft 17 kts 118°
2026-05-04 03:13 37.61073 -122.36090 26 ft 17 kts 118°
2026-05-04 03:13 37.61058 -122.35949 26 ft 17 kts 68°
2026-05-04 03:14 37.61117 -122.35888 26 ft 8 kts 27°
2026-05-04 03:14 37.61170 -122.35866 26 ft 8 kts 353°
2026-05-04 03:14 37.61211 -122.35926 26 ft 15 kts 298°
2026-05-04 03:14 37.61345 -122.36257 26 ft 76 kts 298°
2026-05-04 03:15 37.61701 -122.37096 26 ft 139 kts 297°
2026-05-04 03:15 37.62224 -122.38330 252 ft 166 kts 295°
2026-05-04 03:15 37.62743 -122.39589 954 ft 164 kts 293°
2026-05-04 03:15 37.63284 -122.40893 1553 ft 170 kts 295°
2026-05-04 03:16 37.63862 -122.42248 1989 ft 186 kts 296°
2026-05-04 03:16 37.64515 -122.43769 2195 ft 208 kts 296°
2026-05-04 03:16 37.65252 -122.45470 2379 ft 232 kts 296°
2026-05-04 03:16 37.66057 -122.47325 2784 ft 247 kts 296°
2026-05-04 03:17 37.66894 -122.49250 3056 ft 254 kts 297°
2026-05-04 03:17 37.67853 -122.51110 3026 ft 252 kts 313°
2026-05-04 03:17 37.69340 -122.52247 3208 ft 260 kts 340°
2026-05-04 03:17 37.71146 -122.52600 3739 ft 267 kts 354°
2026-05-04 03:18 37.73025 -122.52654 4341 ft 272 kts 358°
2026-05-04 03:18 37.74927 -122.52689 4980 ft 276 kts 359°
2026-05-04 03:18 37.76855 -122.52739 5596 ft 278 kts 359°
2026-05-04 03:18 37.78801 -122.52674 5990 ft 282 kts 13°
2026-05-04 03:19 37.80537 -122.51586 6471 ft 280 kts 47°
2026-05-04 03:19 37.81634 -122.49592 6984 ft 274 kts 68°
2026-05-04 03:19 37.82406 -122.47370 7418 ft 278 kts 69°
2026-05-04 03:19 37.83195 -122.45132 8024 ft 277 kts 67°
2026-05-04 03:20 37.84314 -122.43150 8393 ft 285 kts 40°
2026-05-04 03:20 37.86054 -122.41911 8775 ft 289 kts 28°
2026-05-04 03:20 37.87866 -122.40782 9311 ft 290 kts 29°
2026-05-04 03:20 37.89638 -122.39654 9898 ft 290 kts 28°
2026-05-04 03:21 37.91450 -122.38497 10272 ft 296 kts 30°
2026-05-04 03:21 37.93344 -122.37283 10398 ft 313 kts 29°
2026-05-04 03:21 37.95341 -122.36001 10524 ft 330 kts 29°
2026-05-04 03:21 37.97448 -122.34648 10653 ft 348 kts 30°
2026-05-04 03:22 37.99671 -122.33216 10870 ft 366 kts 30°
2026-05-04 03:22 38.01972 -122.31738 11369 ft 375 kts 28°
2026-05-04 03:22 38.04300 -122.30246 12017 ft 381 kts 28°
2026-05-04 03:22 38.06680 -122.28717 12797 ft 385 kts 30°
2026-05-04 03:23 38.09077 -122.27174 13561 ft 388 kts 29°
2026-05-04 03:23 38.11501 -122.25609 14227 ft 392 kts 29°
2026-05-04 03:23 38.13942 -122.24033 14882 ft 396 kts 29°
2026-05-04 03:23 38.16406 -122.22441 15536 ft 399 kts 29°
2026-05-04 03:24 38.18888 -122.20840 16184 ft 402 kts 29°
2026-05-04 03:24 38.21392 -122.19220 16795 ft 405 kts 28°
2026-05-04 03:24 38.23921 -122.17584 17395 ft 409 kts 28°
2026-05-04 03:24 38.26468 -122.15933 18001 ft 412 kts 29°
2026-05-04 03:25 38.29027 -122.14272 18544 ft 415 kts 29°
2026-05-04 03:25 38.31602 -122.12598 19057 ft 417 kts 29°
2026-05-04 03:25 38.34262 -122.11129 19451 ft 419 kts 18°
2026-05-04 03:25 38.37169 -122.10614 19702 ft 426 kts
2026-05-04 03:26 38.40153 -122.10371 20016 ft 432 kts
2026-05-04 03:26 38.43160 -122.10100 20607 ft 432 kts
2026-05-04 03:26 38.46154 -122.09803 21200 ft 432 kts
2026-05-04 03:26 38.49159 -122.09481 21668 ft 435 kts
2026-05-04 03:27 38.52191 -122.09139 22060 ft 439 kts
2026-05-04 03:27 38.55206 -122.08790 22563 ft 440 kts
2026-05-04 03:27 38.58237 -122.08442 23231 ft 437 kts 10°
2026-05-04 03:27 38.61279 -122.08087 23679 ft 440 kts 10°
2026-05-04 03:28 38.64344 -122.07725 24001 ft 444 kts 10°
2026-05-04 03:28 38.67432 -122.07362 24331 ft 447 kts 10°
2026-05-04 03:28 38.70544 -122.06997 24648 ft 450 kts 10°
2026-05-04 03:28 38.73669 -122.06632 25023 ft 453 kts 10°
2026-05-04 03:29 38.76809 -122.06264 25444 ft 453 kts 10°
2026-05-04 03:29 38.79920 -122.05899 25844 ft 454 kts 10°
2026-05-04 03:29 38.83074 -122.05529 26174 ft 457 kts 10°
2026-05-04 03:29 38.86251 -122.05156 26496 ft 460 kts 10°
2026-05-04 03:30 38.89449 -122.04780 26824 ft 462 kts 10°
2026-05-04 03:30 38.92661 -122.04402 27167 ft 465 kts 10°
2026-05-04 03:30 38.95885 -122.04023 27502 ft 466 kts
2026-05-04 03:30 38.99119 -122.03642 27855 ft 468 kts
2026-05-04 03:31 39.02369 -122.03248 28171 ft 469 kts 11°
2026-05-04 03:31 39.05534 -122.02543 28437 ft 467 kts 18°
2026-05-04 03:31 39.08652 -122.01357 28709 ft 466 kts 23°
2026-05-04 03:31 39.11656 -121.99808 28980 ft 465 kts 29°
2026-05-04 03:32 39.14536 -121.97918 29240 ft 465 kts 31°
2026-05-04 03:32 39.17407 -121.95984 29462 ft 467 kts 31°
2026-05-04 03:32 39.20290 -121.94036 29712 ft 468 kts 31°
2026-05-04 03:32 39.23183 -121.92087 29979 ft 469 kts 31°
2026-05-04 03:33 39.26085 -121.90141 30253 ft 469 kts 31°
2026-05-04 03:33 39.28984 -121.88204 30548 ft 468 kts 30°
2026-05-04 03:33 39.31873 -121.86277 30829 ft 468 kts 30°
2026-05-04 03:33 39.34765 -121.84350 31111 ft 467 kts 30°
2026-05-04 03:34 39.37660 -121.82421 31389 ft 467 kts 30°
2026-05-04 03:34 39.40548 -121.80495 31656 ft 467 kts 30°
2026-05-04 03:34 39.43426 -121.78574 31995 ft 465 kts 30°
2026-05-04 03:34 39.46301 -121.76654 32274 ft 464 kts 30°
2026-05-04 03:35 39.49172 -121.74733 32539 ft 464 kts 30°
2026-05-04 03:35 39.52043 -121.72810 32810 ft 464 kts 30°
2026-05-04 03:35 39.54906 -121.70891 33103 ft 463 kts 30°
2026-05-04 03:35 39.57732 -121.68994 33389 ft 463 kts 30°
2026-05-04 03:36 39.60593 -121.67073 33672 ft 462 kts 30°
2026-05-04 03:36 39.63453 -121.65150 33941 ft 462 kts 30°
2026-05-04 03:36 39.66299 -121.63236 34225 ft 459 kts 31°
2026-05-04 03:36 39.69132 -121.61328 34507 ft 458 kts 31°
2026-05-04 03:37 39.71968 -121.59416 34617 ft 461 kts 30°
2026-05-04 03:37 39.74819 -121.57492 34746 ft 462 kts 30°
2026-05-04 03:37 39.77679 -121.55560 34854 ft 465 kts 30°